Location: Coleto Creek Park and Reservoir
(28.7196°N, 97.1740°W)
Time: 20:34:06
(UTC-06:00)

Hubble Space Telescope - Visible Passes

Search period start: 22 February 2017 00:00
Search period end: 04 March 2017 00:00
Orbit: 538 x 542 km, 28.5° (Epoch: 21 February)

Date Brightness Start Highest point End Pass type
(mag) Time Alt. Az. Time Alt. Az. Time Alt. Az.
22 Feb 3.1 18:44:53 10° S 18:46:17 11° SSE 18:47:41 10° SE visible
22 Feb 2.6 20:23:14 10° SW 20:25:09 24° SSW 20:25:09 24° SSW visible
23 Feb 1.9 20:13:07 10° WSW 20:15:59 36° SSW 20:15:59 36° SSW visible
24 Feb 1.1 20:03:03 10° WSW 20:06:47 54° S 20:06:47 54° S visible
25 Feb 0.7 19:53:02 10° WSW 19:57:07 65° SSE 19:57:32 60° SE visible
26 Feb 0.7 19:43:02 10° WSW 19:47:09 73° S 19:48:15 46° E visible
27 Feb 0.7 19:33:04 10° W 19:37:12 80° S 19:38:56 34° E visible
27 Feb 4.1 21:14:18 10° W 21:14:18 10° W 21:14:18 10° W visible
28 Feb 0.7 19:23:06 10° W 19:27:15 85° S 19:29:36 25° E visible
28 Feb 3.8 21:04:22 10° W 21:04:58 14° W 21:04:58 14° W visible
01 Mar 0.7 19:13:09 10° W 19:17:18 88° S 19:20:16 18° E visible
01 Mar 3.4 20:54:25 10° W 20:55:39 19° W 20:55:39 19° W visible
02 Mar 0.7 19:03:12 10° W 19:07:21 88° S 19:10:57 13° E visible
02 Mar 2.9 20:44:29 10° W 20:46:19 25° W 20:46:19 25° W visible
03 Mar 0.8 18:53:15 10° W 18:57:24 86° S 19:01:32 10° E visible
03 Mar 2.4 20:34:33 10° W 20:37:01 31° WSW 20:37:01 31° WSW visible
